KE9LZ-9 Weather Reports


time (UTC)temp
F
wind
direction
speed
knots
gust
knots
rain 1hr
in
rain 24hr
in
rain mn
in
humidity
%
barometer
mb
20260905233003 74 309 0.9 1.7 0.00 0.00 0.00 69 1018.1
20260905232004 75 77 0.9 2.6 0.00 0.01 0.00 68 1018.3
20260905231004 75 47 0.9 2.6 0.00 0.02 0.00 66 1018.4
20260905225004 76 74 1.7 5.2 0.00 0.04 0.00 66 1018.4
20260905224004 77 99 1.7 4.3 0.00 0.04 0.00 65 1018.1
20260905223004 77 77 0.9 2.6 0.00 0.04 0.00 66 1018.2
20260905222003 77 36 0.9 0.9 0.00 0.04 0.00 66 1018.3
20260905221004 77 55 0.9 1.7 0.00 0.04 0.00 64 1018.2
20260905220004 77 107 0.0 1.7 0.00 0.04 0.00 63 1018.2
20260905214004 77 93 1.7 2.6 0.00 0.04 0.00 62 1018.1
20260905213004 78 24 0.9 1.7 0.00 0.04 0.00 62 1018.0
20260905212004 78 93 0.9 4.3 0.00 0.04 0.00 61 1018.0
20260905211004 80 135 1.7 4.3 0.00 0.04 0.00 57 1018.0
20260905205004 80 121 1.7 2.6 0.00 0.04 0.00 60 1018.0
20260905203004 79 36 0.9 4.3 0.00 0.04 0.00 60 1018.0
20260905202004 78 306 0.9 2.6 0.00 0.04 0.00 64 1018.2
20260905201004 80 214 0.0 2.6 0.00 0.04 0.00 60 1018.1
20260905200003 79 344 0.9 2.6 0.00 0.04 0.00 62 1018.2
20260905195004 81 346 0.9 2.6 0.00 0.04 0.00 59 1018.1
20260905194004 79 106 1.7 5.2 0.00 0.04 0.00 62 1018.3
20260905193003 79 0 1.7 4.3 0.00 0.04 0.00 63 1018.2
20260905192004 78 7 0.9 2.6 0.00 0.04 0.00 63 1018.1
20260905190004 78 346 0.9 4.3 0.00 0.04 0.00 64 1018.3
20260905185003 78 346 1.7 4.3 0.00 0.04 0.00 64 1018.2
20260905184004 80 277 0.9 4.3 0.00 0.04 0.00 64 1018.5
20260905183004 79 27 1.7 2.6 0.00 0.04 0.00 65 1018.5
20260905182004 76 1 0.9 2.6 0.00 0.04 0.00 70 1018.4
20260905181004 79 339 0.9 4.3 0.00 0.04 0.00 67 1018.3
20260905180004 77 329 0.9 5.2 0.00 0.04 0.00 70 1018.5
20260905175004 77 91 1.7 6.1 0.00 0.04 0.00 68 1018.4
20260905174004 77 359 1.7 2.6 0.00 0.04 0.00 68 1018.5
20260905172004 76 66 0.9 5.2 0.00 0.04 0.00 71 1018.8
20260905171004 76 7 1.7 4.3 0.00 0.04 0.00 70 1019.1
20260905170004 76 283 1.7 4.3 0.00 0.04 0.00 71 1019.1
20260905165004 75 122 1.7 4.3 0.00 0.04 0.00 72 1019.1
20260905164004 75 118 1.7 6.1 0.00 0.04 0.00 72 1019.2
20260905163004 75 351 1.7 2.6 0.00 0.04 0.00 74 1019.3
20260905162004 75 180 1.7 4.3 0.00 0.04 0.00 73 1019.1
20260905161004 76 92 0.9 4.3 0.00 0.04 0.00 72 1019.2
20260905160004 74 359 1.7 7.0 0.00 0.04 0.00 75 1019.2
20260905155004 74 163 1.7 4.3 0.00 0.04 0.00 76 1019.0
20260905154004 74 0 1.7 2.6 0.00 0.04 0.00 76 1018.9
20260905153004 73 337 0.9 4.3 0.00 0.04 0.00 77 1018.9
20260905152004 73 23 0.9 2.6 0.00 0.04 0.00 77 1018.9
20260905151003 72 23 1.7 4.3 0.00 0.04 0.00 81 1018.7
20260905150004 72 333 1.7 2.6 0.00 0.04 0.00 83 1018.5
20260905144004 70 58 0.9 2.6 0.00 0.04 0.00 84 1018.8
20260905143004 68 46 1.7 2.6 0.00 0.04 0.00 87 1018.8
20260905142004 67 19 0.9 1.7 0.00 0.04 0.00 89 1019.0
20260905140004 69 8 1.7 2.6 0.00 0.04 0.00 86 1019.0
20260905135004 68 26 0.9 1.7 0.00 0.04 0.00 86 1019.0
20260905134004 69 3 0.9 2.6 0.00 0.04 0.00 86 1018.8
20260905133004 68 18 0.9 1.7 0.00 0.04 0.00 87 1018.5
20260905132004 66 349 0.9 1.7 0.00 0.04 0.00 90 1018.7
20260905131004 67 342 0.9 1.7 0.00 0.04 0.00 90 1018.4
20260905125004 63 20 0.9 2.6 0.00 0.04 0.00 99 1018.1
20260905124004 61 79 1.7 2.6 0.00 0.04 0.00 99 1018.0
20260905123004 61 292 0.9 2.6 0.00 0.04 0.00 99 1017.9
20260905122003 61 354 0.9 4.3 0.00 0.04 0.00 99 1017.7
20260905121004 61 72 1.7 4.3 0.00 0.04 0.00 99 1017.6
20260905120003 61 43 0.9 2.6 0.00 0.04 0.00 99 1017.6
20260905115003 61 41 1.7 2.6 0.00 0.04 0.00 99 1017.5
20260905114003 61 38 0.9 2.6 0.00 0.04 0.00 99 1017.5
20260905113004 61 18 0.9 2.6 0.00 0.04 0.00 99 1017.3
20260905112004 61 47 0.9 2.6 0.00 0.04 0.00 99 1017.1
20260905111004 61 25 0.9 2.6 0.00 0.04 0.00 99 1017.4
20260905110004 61 20 0.9 1.7 0.00 0.04 0.00 99 1017.2
20260905105003 61 11 1.7 4.3 0.00 0.04 0.00 99 1017.2
20260905104004 61 1 0.9 2.6 0.00 0.04 0.00 99 1017.1
20260905101004 62 0 0.9 1.7 0.00 0.04 0.00 99 1017.0
20260905100003 62 4 0.9 1.7 0.00 0.04 0.00 99 1016.9
20260905095004 62 337 0.9 1.7 0.00 0.04 0.00 99 1016.9
20260905094004 62 27 0.9 1.7 0.00 0.04 0.00 99 1016.7
20260905093004 62 22 0.9 1.7 0.00 0.04 0.00 99 1016.8
20260905092003 62 354 0.9 1.7 0.00 0.04 0.00 99 1016.7
20260905091004 62 29 0.9 1.7 0.00 0.04 0.00 99 1016.9
20260905090004 62 3 0.9 1.7 0.00 0.04 0.00 99 1017.0
20260905085005 62 1 0.9 1.7 0.00 0.04 0.00 99 1017.1
20260905084004 62 23 0.9 1.7 0.00 0.04 0.00 99 1016.9
20260905083005 62 27 0.0 1.7 0.00 0.04 0.00 99 1017.0
20260905082005 62 28 0.9 1.7 0.00 0.04 0.00 99 1016.8
20260905081004 62 4 0.9 1.7 0.00 0.04 0.00 99 1016.8
20260905080004 62 351 0.9 1.7 0.00 0.04 0.00 99 1016.8
20260905075004 62 18 0.9 1.7 0.00 0.04 0.00 99 1016.9
20260905074004 63 327 0.9 1.7 0.00 0.04 0.00 99 1016.9
20260905073004 63 2 0.0 0.9 0.00 0.04 0.00 99 1016.8
20260905072004 63 358 0.9 0.9 0.00 0.04 0.00 99 1016.8
20260905071004 63 341 0.9 1.7 0.00 0.04 0.00 99 1016.8
20260905070003 63 352 0.9 1.7 0.00 0.04 0.00 99 1016.6
20260905065004 63 355 0.9 1.7 0.00 0.04 0.00 99 1016.6
20260905064004 63 25 0.9 0.9 0.00 0.05 0.00 99 1016.6
20260905063004 63 10 0.9 0.9 0.00 0.06 0.00 99 1016.6
20260905062004 63 0 0.0 1.7 0.00 0.06 0.00 99 1016.7
20260905061004 64 359 0.9 1.7 0.00 0.06 0.00 99 1016.5
20260905060004 64 23 0.9 1.7 0.00 0.06 0.00 99 1016.7
20260905055004 64 7 0.9 1.7 0.00 0.06 0.00 99 1016.7
20260905054004 64 319 0.9 0.9 0.00 0.06 0.00 99 1016.7
20260905053004 64 20 0.9 0.9 0.00 0.06 0.00 99 1016.5
20260905051004 64 326 0.0 1.7 0.00 0.06 0.00 99 1016.5
20260905050004 64 333 0.0 0.9 0.00 0.06 0.00 99 1016.4
20260905045004 64 33 0.0 0.9 0.00 0.06 0.06 99 1016.5
20260905044003 64 16 0.9 0.9 0.00 0.06 0.06 99 1016.5
20260905043004 64 31 0.9 1.7 0.00 0.06 0.06 99 1016.5
20260905041003 65 351 0.9 0.9 0.00 0.06 0.06 99 1016.4
20260905040004 64 5 0.0 0.9 0.00 0.06 0.06 99 1016.4
20260905034004 65 356 0.9 1.7 0.00 0.06 0.06 99 1016.6
20260905033004 65 319 0.0 1.7 0.00 0.06 0.06 99 1016.4
20260905032003 65 5 0.9 1.7 0.00 0.06 0.06 99 1016.4
20260905031004 65 11 0.9 1.7 0.00 0.06 0.06 99 1016.5
20260905030004 65 0 0.9 2.6 0.00 0.06 0.06 99 1016.2
20260905025004 65 11 0.9 1.7 0.00 0.06 0.06 99 1016.4
20260905024004 65 32 0.9 1.7 0.00 0.06 0.06 99 1016.3
20260905023003 65 42 0.9 1.7 0.00 0.06 0.06 99 1016.3
20260905022003 65 77 0.0 1.7 0.00 0.06 0.06 99 1016.1
20260905021004 65 15 0.9 1.7 0.00 0.06 0.06 99 1016.3
20260905020004 65 4 0.9 1.7 0.00 0.06 0.06 99 1016.2
20260905015003 65 7 0.9 1.7 0.00 0.06 0.06 99 1016.1
20260905014004 65 3 0.9 1.7 0.00 0.06 0.06 99 1016.3
20260905013003 65 8 0.9 1.7 0.00 0.06 0.06 99 1016.4
20260905011003 65 43 0.9 1.7 0.00 0.06 0.06 99 1016.3
20260905010004 65 15 0.9 1.7 0.00 0.06 0.06 99 1016.1
20260905005004 65 25 0.9 2.6 0.00 0.06 0.06 99 1015.8
20260905003004 65 19 0.9 1.7 0.00 0.06 0.06 99 1015.8
20260905002004 65 79 0.9 1.7 0.01 0.06 0.06 99 1015.9
20260905001003 65 31 0.9 1.7 0.02 0.06 0.06 99 1016.1
20260904234004 66 353 0.9 1.7 0.04 0.06 0.06 99 1015.9